QPF
0.00 0.00 0.00 0.00 0.00 0.00 0.00 0.00 0.00 0.00 0.00 0.00 0.00 0.00 0.00 0.00 0.00 0.00 0.00 0.00 0.00 0.00 0.00 0.00 0.00 0.00 0.00 0.00 0.00 0.00 0.00 0.00 0.00 0.00 0.00 0.00 0.00 0.00 0.00 0.00 0.00 0.01 0.01
0.00 0.00 0.00 0.00 0.00 0.00 0.00 0.00 0.00 0.00 0.00 0.00 0.00 0.00 0.00 0.00 0.00 0.00 0.00 0.00 0.00 0.00 0.00 0.00 0.00 0.00 0.00 0.00 0.00 0.00 0.00 0.00 0.00 0.00 0.00 0.00 0.00 0.00 0.00 0.00 0.00 0.00 0.00
0.00 0.00 0.00 0.00 0.00 0.00 0.00 0.00 0.00 0.00 0.00 0.00 0.00 0.00 0.00 0.00 0.00 0.00 0.00 0.00 0.00 0.00 0.00 0.00 0.00 0.00 0.00 0.00 0.00 0.00 0.00 0.00 0.00 0.00 0.00 0.00 0.00 0.00 0.00 0.00 0.00 0.00 0.00
0.00 0.00 0.00 0.00 0.00 0.00 0.00 0.00 0.00 0.00 0.00 0.00 0.00 0.00 0.00 0.00 0.00 0.00 0.00 0.00 0.00 0.00 0.00 0.00 0.00 0.00 0.00 0.00 0.00 0.00 0.00 0.00 0.00 0.00 0.00 0.00 0.00 0.00 0.00 0.00 0.00 0.00 0.00
0.01 0.00 0.00 0.00 0.00 0.00 0.00 0.00 0.00 0.00 0.00 0.00 0.00 0.00 0.00 0.00 0.00 0.00 0.00 0.00 0.00 0.00 0.00 0.00 0.00 0.00 0.00 0.00 0.00 0.00 0.00 0.00 0.00 0.00 0.00 0.00 0.00 0.00 0.00 0.00 0.00 0.00 0.00
0.01 0.00 0.00 0.00 0.00 0.00 0.00 0.00 0.00 0.00 0.00 0.00 0.00 0.00 0.00 0.00 0.00 0.00 0.00 0.00 0.00 0.00 0.00 0.00 0.00 0.00 0.00 0.00 0.00 0.00 0.00 0.00 0.00 0.00 0.00 0.00 0.00 0.00 0.00 0.00 0.00 0.00 0.00
0.02 0.01 0.00 0.00 0.00 0.00 0.00 0.00 0.00 0.00 0.00 0.00 0.00 0.00 0.00 0.00 0.00 0.00 0.00 0.00 0.00 0.00 0.00 0.00 0.00 0.00 0.00 0.00 0.00 0.00 0.00 0.00 0.00 0.00 0.00 0.00 0.00 0.00 0.00 0.00 0.00 0.00 0.00
0.03 0.01 0.00 0.00 0.00 0.00 0.00 0.00 0.00 0.00 0.00 0.00 0.00 0.00 0.00 0.00 0.00 0.00 0.00 0.00 0.00 0.00 0.00 0.00 0.00 0.00 0.00 0.00 0.00 0.00 0.00 0.00 0.00 0.00 0.00 0.00 0.00 0.00 0.01 0.01 0.01 0.01 0.01
0.02 0.01 0.00 0.00 0.00 0.00 0.00 0.00 0.00 0.00 0.00 0.00 0.00 0.00 0.00 0.00 0.00 0.00 0.00 0.00 0.00 0.00 0.00 0.00 0.00 0.00 0.00 0.00 0.00 0.00 0.00 0.00 0.00 0.00 0.00 0.00 0.01 0.01 0.01 0.02 0.02 0.02 0.02
0.01 0.01 0.00 0.00 0.00 0.00 0.00 0.00 0.00 0.00 0.00 0.00 0.00 0.00 0.00 0.00 0.00 0.00 0.00 0.00 0.00 0.00 0.00 0.00 0.00 0.00 0.00 0.00 0.00 0.00 0.00 0.00 0.00 0.00 0.00 0.01 0.01 0.02 0.02 0.03 0.03 0.03 0.04
0.00 0.00 0.00 0.00 0.00 0.00 0.00 0.00 0.00 0.00 0.00 0.00 0.00 0.00 0.00 0.00 0.00 0.00 0.00 0.00 0.00 0.00 0.00 0.00 0.00 0.00 0.00 0.00 0.00 0.00 0.00 0.00 0.00 0.00 0.01 0.01 0.02 0.02 0.03 0.04 0.04 0.05 0.05
0.00 0.00 0.00 0.00 0.00 0.00 0.00 0.00 0.00 0.00 0.00 0.00 0.00 0.00 0.00 0.00 0.00 0.00 0.00 0.00 0.00 0.00 0.00 0.00 0.00 0.00 0.00 0.00 0.00 0.00 0.00 0.00 0.00 0.00 0.01 0.02 0.02 0.03 0.04 0.05 0.05 0.06 0.06
0.01 0.00 0.00 0.00 0.00 0.00 0.00 0.00 0.00 0.00 0.00 0.00 0.00 0.00 0.00 0.00 0.00 0.00 0.00 0.00 0.00 0.00 0.00 0.00 0.00 0.00 0.00 0.00 0.00 0.00 0.00 0.00 0.00 0.00 0.01 0.02 0.02 0.03 0.03 0.04 0.05 0.05 0.06
0.01 0.00 0.00 0.00 0.00 0.00 0.00 0.00 0.00 0.00 0.00 0.00 0.00 0.00 0.00 0.00 0.00 0.00 0.00 0.00 0.00 0.00 0.00 0.00 0.00 0.00 0.00 0.00 0.00 0.00 0.00 0.00 0.00 0.00 0.01 0.01 0.02 0.02 0.02 0.03 0.04 0.04 0.05
0.00 0.00 0.00 0.00 0.00 0.00 0.00 0.00 0.00 0.00 0.00 0.00 0.00 0.00 0.00 0.00 0.00 0.00 0.00 0.00 0.00 0.00 0.00 0.00 0.00 0.00 0.00 0.00 0.00 0.00 0.00 0.00 0.00 0.01 0.01 0.01 0.01 0.02 0.02 0.03 0.04 0.04 0.05
0.00 0.00 0.00 0.00 0.00 0.00 0.00 0.00 0.00 0.00 0.00 0.00 0.00 0.00 0.00 0.00 0.00 0.00 0.00 0.00 0.00 0.00 0.00 0.00 0.00 0.00 0.00 0.00 0.00 0.00 0.00 0.00 0.00 0.00 0.01 0.01 0.01 0.02 0.02 0.03 0.03 0.04 0.05
0.00 0.00 0.00 0.00 0.00 0.00 0.00 0.00 0.00 0.00 0.00 0.00 0.00 0.00 0.00 0.00 0.00 0.00 0.00 0.00 0.00 0.00 0.00 0.00 0.00 0.00 0.00 0.00 0.00 0.00 0.00 0.00 0.00 0.00 0.00 0.01 0.01 0.02 0.02 0.03 0.03 0.04 0.04
0.00 0.00 0.00 0.00 0.00 0.00 0.00 0.00 0.00 0.00 0.00 0.00 0.00 0.00 0.00 0.00 0.00 0.00 0.00 0.00 0.00 0.00 0.00 0.00 0.00 0.00 0.00 0.00 0.00 0.00 0.00 0.00 0.00 0.00 0.00 0.00 0.01 0.01 0.01 0.02 0.02 0.03 0.04
0.00 0.00 0.00 0.00 0.00 0.00 0.00 0.00 0.00 0.00 0.00 0.00 0.00 0.00 0.00 0.00 0.00 0.00 0.00 0.00 0.00 0.00 0.00 0.01 0.00 0.00 0.00 0.00 0.00 0.00 0.00 0.00 0.00 0.00 0.00 0.00 0.00 0.00 0.01 0.01 0.02 0.02 0.02
0.00 0.00 0.00 0.00 0.00 0.00 0.00 0.00 0.00 0.00 0.00 0.00 0.00 0.00 0.00 0.00 0.00 0.00 0.00 0.00 0.00 0.01 0.01 0.01 0.02 0.01 0.01 0.00 0.00 0.00 0.00 0.00 0.00 0.00 0.00 0.00 0.00 0.00 0.00 0.00 0.00 0.00 0.01
0.00 0.00 0.00 0.00 0.00 0.00 0.00 0.00 0.00 0.00 0.00 0.00 0.00 0.00 0.00 0.00 0.00 0.00 0.00 0.00 0.01 0.01 0.02 0.03 0.03 0.01 0.00 0.00 0.00 0.00 0.00 0.00 0.00 0.00 0.00 0.00 0.00 0.00 0.00 0.00 0.00 0.00 0.00
0.00 0.00 0.00 0.00 0.00 0.00 0.00 0.00 0.00 0.00 0.00 0.00 0.00 0.00 0.00 0.00 0.00 0.00 0.00 0.00 0.01 0.03 0.04 0.04 0.02 0.01 0.00 0.00 0.00 0.01 0.01 0.02 0.01 0.00 0.00 0.00 0.00 0.00 0.00 0.00 0.00 0.00 0.00
0.00 0.00 0.00 0.00 0.00 0.00 0.00 0.00 0.00 0.00 0.00 0.00 0.00 0.00 0.00 0.00 0.00 0.00 0.00 0.01 0.02 0.02 0.02 0.02 0.01 0.00 0.00 0.01 0.02 0.03 0.02 0.02 0.01 0.00 0.00 0.00 0.00 0.00 0.00 0.00 0.00 0.00 0.00
0.00 0.00 0.00 0.00 0.00 0.00 0.00 0.00 0.00 0.00 0.00 0.00 0.00 0.00 0.00 0.00 0.00 0.00 0.01 0.02 0.02 0.01 0.00 0.00 0.00 0.00 0.01 0.01 0.03 0.04 0.02 0.02 0.01 0.00 0.00 0.00 0.00 0.00 0.00 0.00 0.00 0.00 0.00
0.00 0.00 0.00 0.00 0.00 0.00 0.00 0.00 0.00 0.00 0.00 0.00 0.00 0.00 0.00 0.00 0.00 0.01 0.03 0.02 0.01 0.00 0.00 0.00 0.01 0.01 0.01 0.00 0.00 0.02 0.02 0.02 0.01 0.00 0.00 0.00 0.00 0.00 0.00 0.00 0.00 0.00 0.00
0.00 0.00 0.00 0.00 0.00 0.00 0.00 0.00 0.00 0.00 0.00 0.00 0.00 0.00 0.00 0.00 0.01 0.02 0.02 0.01 0.00 0.00 0.01 0.00 0.00 0.00 0.00 0.00 0.00 0.01 0.03 0.05 0.03 0.02 0.00 0.02 0.01 0.01 0.02 0.00 0.00 0.00 0.00
MSLP
1015.38 1015.64 1015.89 1016.12 1016.35 1016.56 1016.74 1016.89 1016.98 1017.02 1017.00 1016.95 1016.87 1016.81 1016.78 1016.81 1016.90 1017.03 1017.19 1017.33 1017.42 1017.42 1017.33 1017.14 1016.87 1016.56 1016.24 1015.96 1015.72 1015.53 1015.39 1015.28 1015.15 1015.00 1014.79 1014.54 1014.24 1013.91 1013.58 1013.26 1012.97 1012.73 1012.53
1015.25 1015.58 1015.89 1016.20 1016.48 1016.74 1016.96 1017.13 1017.23 1017.26 1017.23 1017.16 1017.07 1016.99 1016.96 1017.00 1017.11 1017.29 1017.48 1017.67 1017.80 1017.85 1017.78 1017.61 1017.34 1017.01 1016.67 1016.34 1016.05 1015.82 1015.65 1015.50 1015.36 1015.19 1014.99 1014.73 1014.42 1014.08 1013.72 1013.36 1013.03 1012.74 1012.49
1015.23 1015.62 1016.01 1016.37 1016.71 1017.01 1017.25 1017.42 1017.51 1017.52 1017.46 1017.35 1017.24 1017.14 1017.10 1017.13 1017.24 1017.43 1017.65 1017.87 1018.04 1018.13 1018.10 1017.95 1017.69 1017.36 1017.00 1016.64 1016.32 1016.04 1015.82 1015.63 1015.46 1015.27 1015.05 1014.78 1014.47 1014.12 1013.75 1013.37 1013.02 1012.70 1012.42
1015.34 1015.80 1016.24 1016.65 1017.02 1017.33 1017.57 1017.73 1017.79 1017.77 1017.67 1017.53 1017.38 1017.25 1017.18 1017.19 1017.29 1017.47 1017.70 1017.93 1018.12 1018.24 1018.24 1018.13 1017.90 1017.58 1017.22 1016.84 1016.48 1016.17 1015.89 1015.65 1015.43 1015.21 1014.96 1014.68 1014.35 1014.00 1013.62 1013.24 1012.88 1012.55 1012.25
1015.60 1016.11 1016.59 1017.03 1017.40 1017.71 1017.93 1018.05 1018.08 1018.02 1017.88 1017.70 1017.51 1017.35 1017.25 1017.23 1017.30 1017.45 1017.66 1017.88 1018.07 1018.19 1018.22 1018.14 1017.95 1017.66 1017.31 1016.93 1016.55 1016.20 1015.87 1015.58 1015.30 1015.03 1014.73 1014.42 1014.07 1013.70 1013.32 1012.94 1012.58 1012.24 1011.94
1015.97 1016.51 1017.01 1017.45 1017.82 1018.10 1018.28 1018.37 1018.35 1018.25 1018.09 1017.88 1017.67 1017.49 1017.35 1017.30 1017.32 1017.42 1017.58 1017.76 1017.93 1018.04 1018.08 1018.02 1017.85 1017.60 1017.28 1016.92 1016.53 1016.15 1015.79 1015.43 1015.09 1014.75 1014.40 1014.04 1013.66 1013.26 1012.87 1012.48 1012.12 1011.78 1011.47
1016.41 1016.96 1017.45 1017.88 1018.22 1018.46 1018.61 1018.66 1018.62 1018.50 1018.32 1018.11 1017.89 1017.69 1017.54 1017.44 1017.41 1017.45 1017.53 1017.65 1017.75 1017.83 1017.85 1017.80 1017.66 1017.44 1017.16 1016.82 1016.44 1016.05 1015.65 1015.24 1014.84 1014.43 1014.02 1013.60 1013.17 1012.74 1012.32 1011.92 1011.54 1011.19 1010.87
1016.85 1017.39 1017.87 1018.26 1018.57 1018.78 1018.89 1018.92 1018.87 1018.75 1018.59 1018.40 1018.20 1018.00 1017.84 1017.71 1017.62 1017.57 1017.57 1017.58 1017.61 1017.62 1017.60 1017.53 1017.40 1017.21 1016.95 1016.64 1016.29 1015.90 1015.48 1015.04 1014.58 1014.11 1013.63 1013.15 1012.67 1012.20 1011.74 1011.30 1010.90 1010.53 1010.19
1017.23 1017.75 1018.20 1018.56 1018.84 1019.03 1019.13 1019.15 1019.11 1019.03 1018.90 1018.76 1018.59 1018.43 1018.26 1018.10 1017.95 1017.81 1017.70 1017.60 1017.51 1017.43 1017.34 1017.23 1017.09 1016.92 1016.69 1016.41 1016.08 1015.70 1015.28 1014.82 1014.32 1013.80 1013.27 1012.73 1012.20 1011.68 1011.18 1010.71 1010.27 1009.87 1009.50
1017.50 1018.00 1018.42 1018.77 1019.03 1019.21 1019.31 1019.36 1019.36 1019.32 1019.26 1019.17 1019.06 1018.93 1018.77 1018.58 1018.37 1018.15 1017.92 1017.69 1017.48 1017.28 1017.10 1016.93 1016.77 1016.59 1016.37 1016.12 1015.82 1015.46 1015.05 1014.58 1014.06 1013.51 1012.94 1012.36 1011.78 1011.21 1010.67 1010.16 1009.69 1009.24 1008.84
1017.66 1018.14 1018.55 1018.88 1019.14 1019.33 1019.46 1019.55 1019.60 1019.62 1019.62 1019.60 1019.55 1019.45 1019.31 1019.10 1018.83 1018.52 1018.18 1017.83 1017.48 1017.17 1016.88 1016.64 1016.42 1016.22 1016.01 1015.77 1015.49 1015.15 1014.75 1014.28 1013.76 1013.20 1012.60 1011.99 1011.38 1010.79 1010.21 1009.66 1009.15 1008.67 1008.22
1017.72 1018.19 1018.60 1018.94 1019.22 1019.43 1019.60 1019.72 1019.82 1019.90 1019.97 1020.00 1020.00 1019.94 1019.80 1019.57 1019.26 1018.88 1018.43 1017.97 1017.50 1017.07 1016.68 1016.34 1016.06 1015.81 1015.58 1015.34 1015.07 1014.74 1014.35 1013.90 1013.38 1012.81 1012.21 1011.59 1010.96 1010.35 1009.75 1009.18 1008.63 1008.12 1007.64
1017.71 1018.19 1018.62 1018.98 1019.28 1019.52 1019.72 1019.88 1020.02 1020.14 1020.24 1020.32 1020.34 1020.30 1020.17 1019.93 1019.59 1019.15 1018.63 1018.07 1017.51 1016.96 1016.47 1016.05 1015.69 1015.39 1015.12 1014.85 1014.56 1014.23 1013.85 1013.40 1012.89 1012.32 1011.72 1011.09 1010.46 1009.84 1009.23 1008.64 1008.08 1007.55 1007.04
1017.69 1018.20 1018.65 1019.04 1019.37 1019.63 1019.85 1020.02 1020.17 1020.30 1020.41 1020.50 1020.53 1020.50 1020.37 1020.13 1019.77 1019.30 1018.74 1018.12 1017.48 1016.86 1016.28 1015.77 1015.33 1014.95 1014.62 1014.30 1013.98 1013.63 1013.22 1012.76 1012.25 1011.68 1011.08 1010.45 1009.82 1009.20 1008.58 1007.99 1007.42 1006.88 1006.37
1017.70 1018.24 1018.72 1019.14 1019.48 1019.76 1019.97 1020.13 1020.26 1020.37 1020.45 1020.52 1020.54 1020.50 1020.37 1020.14 1019.78 1019.31 1018.74 1018.10 1017.42 1016.74 1016.09 1015.50 1014.98 1014.52 1014.11 1013.73 1013.34 1012.94 1012.50 1012.01 1011.47 1010.89 1010.28 1009.65 1009.01 1008.38 1007.77 1007.18 1006.61 1006.08 1005.57
1017.78 1018.35 1018.86 1019.29 1019.64 1019.90 1020.08 1020.20 1020.28 1020.32 1020.36 1020.38 1020.37 1020.32 1020.19 1019.97 1019.64 1019.20 1018.64 1018.01 1017.32 1016.62 1015.92 1015.27 1014.67 1014.12 1013.62 1013.15 1012.68 1012.21 1011.70 1011.17 1010.59 1009.98 1009.34 1008.69 1008.04 1007.40 1006.78 1006.19 1005.63 1005.10 1004.61
1017.94 1018.54 1019.06 1019.49 1019.82 1020.04 1020.17 1020.22 1020.21 1020.18 1020.15 1020.10 1020.06 1019.99 1019.87 1019.67 1019.38 1018.98 1018.47 1017.87 1017.20 1016.49 1015.77 1015.06 1014.39 1013.76 1013.16 1012.59 1012.04 1011.47 1010.90 1010.29 1009.66 1009.00 1008.32 1007.63 1006.95 1006.28 1005.64 1005.03 1004.47 1003.95 1003.47
1018.18 1018.79 1019.31 1019.72 1020.01 1020.17 1020.22 1020.19 1020.09 1019.97 1019.85 1019.75 1019.66 1019.57 1019.45 1019.29 1019.04 1018.70 1018.25 1017.69 1017.05 1016.35 1015.61 1014.87 1014.13 1013.42 1012.74 1012.08 1011.43 1010.79 1010.13 1009.45 1008.75 1008.02 1007.28 1006.54 1005.81 1005.09 1004.41 1003.78 1003.20 1002.67 1002.19
1018.47 1019.07 1019.57 1019.94 1020.17 1020.27 1020.24 1020.12 1019.93 1019.72 1019.53 1019.36 1019.23 1019.12 1019.01 1018.87 1018.67 1018.38 1017.98 1017.47 1016.86 1016.17 1015.43 1014.66 1013.87 1013.10 1012.35 1011.61 1010.89 1010.17 1009.44 1008.69 1007.92 1007.13 1006.32 1005.51 1004.70 1003.92 1003.18 1002.50 1001.88 1001.32 1000.83
1018.79 1019.35 1019.81 1020.13 1020.30 1020.32 1020.22 1020.02 1019.75 1019.47 1019.22 1019.00 1018.83 1018.70 1018.59 1018.47 1018.29 1018.03 1017.66 1017.18 1016.60 1015.92 1015.18 1014.39 1013.58 1012.77 1011.97 1011.18 1010.41 1009.63 1008.85 1008.05 1007.22 1006.36 1005.49 1004.60 1003.71 1002.85 1002.03 1001.27 1000.58 999.98 999.45
1019.09 1019.60 1020.00 1020.26 1020.37 1020.33 1020.16 1019.90 1019.58 1019.25 1018.94 1018.69 1018.49 1018.34 1018.21 1018.08 1017.90 1017.64 1017.28 1016.82 1016.24 1015.57 1014.82 1014.02 1013.21 1012.38 1011.57 1010.77 1009.97 1009.18 1008.37 1007.54 1006.67 1005.77 1004.82 1003.86 1002.89 1001.94 1001.02 1000.16 999.39 998.70 998.10
1019.34 1019.79 1020.13 1020.32 1020.37 1020.28 1020.07 1019.77 1019.42 1019.06 1018.73 1018.44 1018.21 1018.03 1017.87 1017.70 1017.49 1017.21 1016.83 1016.34 1015.76 1015.08 1014.33 1013.54 1012.74 1011.93 1011.13 1010.34 1009.57 1008.79 1007.99 1007.15 1006.27 1005.33 1004.34 1003.31 1002.25 1001.21 1000.19 999.22 998.34 997.54 996.84
1019.53 1019.91 1020.17 1020.30 1020.30 1020.18 1019.94 1019.63 1019.27 1018.90 1018.56 1018.25 1017.99 1017.76 1017.55 1017.32 1017.05 1016.71 1016.28 1015.76 1015.15 1014.46 1013.72 1012.95 1012.17 1011.40 1010.64 1009.91 1009.18 1008.44 1007.67 1006.85 1005.97 1005.02 1003.99 1002.91 1001.79 1000.65 999.53 998.45 997.45 996.52 995.70
1019.65 1019.94 1020.14 1020.21 1020.17 1020.02 1019.78 1019.47 1019.12 1018.76 1018.41 1018.08 1017.78 1017.50 1017.21 1016.91 1016.56 1016.14 1015.65 1015.08 1014.43 1013.74 1013.01 1012.26 1011.53 1010.81 1010.12 1009.45 1008.78 1008.10 1007.38 1006.60 1005.73 1004.78 1003.74 1002.62 1001.45 1000.24 999.02 997.84 996.71 995.66 994.69
1019.70 1019.92 1020.04 1020.06 1019.98 1019.82 1019.58 1019.29 1018.95 1018.60 1018.25 1017.90 1017.55 1017.21 1016.85 1016.45 1016.01 1015.51 1014.95 1014.33 1013.66 1012.96 1012.25 1011.55 1010.87 1010.22 1009.59 1008.99 1008.39 1007.76 1007.08 1006.33 1005.49 1004.55 1003.51 1002.37 1001.16 999.89 998.61 997.34 996.10 994.92 993.82
1019.71 1019.84 1019.89 1019.86 1019.75 1019.58 1019.35 1019.07 1018.75 1018.41 1018.05 1017.67 1017.29 1016.88 1016.44 1015.96 1015.44 1014.86 1014.24 1013.59 1012.91 1012.22 1011.53 1010.87 1010.25 1009.65 1009.09 1008.54 1007.98 1007.40 1006.75 1006.03 1005.20 1004.27 1003.22 1002.08 1000.85 999.56 998.23 996.90 995.58 994.29 993.06
Thickness
5671 5668 5666 5663 5661 5659 5657 5655 5654 5652 5650 5648 5646 5644 5641 5640 5638 5636 5632 5628 5627 5627 5625 5624 5623 5622 5621 5621 5621 5620 5620 5619 5620 5620 5621 5621 5623 5624 5626 5628 5629 5631 5633
5665 5662 5660 5656 5654 5651 5649 5648 5646 5644 5642 5640 5638 5636 5634 5632 5630 5627 5624 5619 5616 5614 5613 5611 5610 5609 5609 5609 5609 5609 5608 5608 5608 5608 5609 5610 5611 5613 5614 5616 5618 5620 5622
5659 5656 5653 5649 5645 5643 5641 5639 5637 5636 5633 5632 5631 5628 5626 5624 5622 5618 5614 5610 5606 5603 5600 5598 5597 5597 5597 5597 5597 5597 5597 5597 5597 5597 5597 5598 5600 5601 5603 5604 5606 5609 5611
5652 5648 5645 5640 5637 5634 5633 5630 5629 5628 5625 5624 5624 5621 5619 5615 5613 5609 5605 5600 5596 5593 5590 5586 5585 5585 5585 5585 5585 5585 5585 5585 5585 5586 5586 5586 5588 5589 5590 5592 5594 5596 5598
5645 5641 5636 5632 5629 5626 5624 5621 5619 5618 5616 5614 5614 5613 5610 5607 5603 5599 5595 5590 5585 5582 5580 5577 5575 5574 5573 5573 5572 5572 5572 5573 5573 5573 5573 5574 5575 5576 5577 5579 5580 5582 5584
5637 5632 5627 5624 5620 5617 5614 5612 5610 5607 5605 5604 5605 5604 5601 5597 5594 5589 5585 5580 5575 5572 5569 5567 5566 5565 5563 5561 5560 5559 5559 5559 5558 5559 5559 5560 5560 5562 5563 5565 5566 5568 5570
5628 5624 5619 5615 5611 5609 5606 5605 5602 5599 5596 5594 5597 5597 5593 5588 5584 5579 5574 5571 5567 5561 5558 5555 5553 5552 5552 5550 5547 5545 5544 5543 5543 5543 5543 5544 5545 5546 5548 5549 5551 5553 5555
5618 5615 5611 5607 5602 5599 5597 5594 5592 5590 5585 5582 5583 5586 5587 5586 5576 5570 5564 5560 5556 5551 5547 5543 5540 5538 5537 5536 5534 5531 5528 5527 5526 5526 5527 5527 5528 5529 5530 5532 5534 5536 5538
5609 5606 5602 5598 5593 5590 5586 5583 5581 5579 5576 5571 5568 5569 5571 5574 5567 5564 5556 5550 5544 5539 5533 5529 5526 5523 5521 5520 5518 5516 5512 5510 5508 5509 5509 5509 5510 5510 5512 5513 5515 5517 5519
5599 5595 5592 5588 5584 5579 5576 5573 5569 5567 5563 5561 5556 5550 5547 5545 5545 5551 5550 5543 5535 5527 5522 5518 5514 5511 5507 5505 5502 5499 5496 5493 5491 5491 5491 5491 5491 5491 5492 5493 5493 5495 5496
5589 5585 5582 5578 5574 5570 5566 5562 5558 5555 5551 5547 5544 5540 5536 5531 5528 5526 5533 5532 5526 5519 5513 5507 5502 5498 5494 5490 5488 5484 5480 5476 5474 5473 5472 5472 5471 5469 5469 5468 5468 5468 5469
5579 5575 5572 5568 5564 5560 5555 5551 5547 5543 5538 5533 5529 5526 5522 5520 5517 5512 5513 5514 5512 5508 5502 5497 5490 5485 5480 5475 5472 5467 5462 5458 5455 5453 5451 5448 5446 5443 5441 5439 5437 5436 5436
5572 5567 5564 5560 5555 5549 5545 5541 5536 5531 5526 5521 5518 5514 5509 5504 5499 5494 5491 5493 5494 5494 5491 5485 5477 5471 5464 5458 5453 5447 5443 5438 5434 5429 5425 5421 5416 5411 5407 5404 5401 5400 5399
5566 5560 5556 5550 5545 5540 5535 5530 5525 5520 5515 5511 5506 5501 5496 5491 5485 5480 5475 5473 5477 5483 5478 5472 5463 5452 5443 5436 5430 5424 5420 5415 5408 5402 5396 5390 5384 5378 5373 5369 5367 5365 5364
5557 5552 5546 5541 5536 5530 5525 5519 5515 5510 5505 5500 5495 5490 5484 5478 5472 5466 5460 5454 5451 5459 5465 5456 5445 5434 5422 5413 5406 5398 5393 5387 5379 5372 5365 5360 5355 5350 5346 5342 5340 5338 5337
5549 5543 5537 5532 5526 5521 5515 5510 5505 5499 5495 5490 5483 5477 5472 5466 5459 5452 5446 5440 5434 5432 5439 5440 5427 5415 5403 5392 5383 5373 5367 5359 5352 5345 5340 5337 5333 5330 5328 5326 5325 5324 5324
5540 5534 5528 5523 5517 5511 5505 5500 5495 5489 5484 5479 5472 5466 5459 5452 5445 5439 5432 5426 5419 5414 5418 5422 5408 5398 5385 5374 5364 5352 5342 5335 5332 5327 5324 5322 5320 5319 5319 5319 5319 5319 5319
5531 5525 5519 5513 5507 5501 5495 5490 5485 5479 5473 5468 5461 5454 5447 5439 5432 5425 5418 5412 5405 5398 5394 5397 5393 5379 5367 5354 5344 5334 5325 5318 5316 5315 5314 5314 5314 5315 5315 5316 5317 5318 5318
5521 5514 5509 5503 5496 5490 5485 5480 5474 5469 5463 5457 5450 5442 5434 5426 5420 5412 5405 5398 5391 5383 5375 5371 5370 5359 5347 5334 5327 5321 5314 5310 5308 5308 5309 5311 5312 5313 5314 5315 5316 5317 5318
5511 5505 5499 5492 5485 5480 5474 5469 5463 5458 5453 5446 5438 5429 5421 5413 5406 5398 5391 5383 5374 5366 5356 5349 5345 5338 5328 5318 5311 5310 5309 5304 5303 5303 5307 5308 5310 5311 5312 5314 5316 5317 5317
5501 5494 5488 5481 5475 5469 5464 5458 5454 5448 5442 5435 5427 5418 5410 5400 5391 5382 5374 5365 5354 5344 5335 5327 5321 5316 5311 5306 5301 5299 5299 5300 5300 5300 5306 5307 5306 5309 5311 5313 5315 5317 5317
5490 5483 5477 5471 5465 5459 5451 5446 5441 5437 5431 5423 5416 5408 5399 5390 5381 5371 5360 5347 5333 5322 5314 5306 5302 5298 5296 5294 5293 5290 5290 5293 5299 5298 5299 5304 5301 5308 5311 5313 5315 5316 5317
5480 5473 5467 5461 5456 5449 5440 5435 5429 5424 5419 5411 5403 5396 5388 5379 5367 5358 5347 5334 5320 5307 5297 5291 5289 5287 5287 5285 5284 5284 5284 5285 5288 5290 5292 5302 5303 5307 5309 5312 5314 5316 5317
5470 5464 5458 5451 5445 5438 5430 5424 5418 5414 5407 5400 5391 5383 5374 5364 5352 5341 5333 5322 5309 5299 5291 5285 5282 5281 5280 5279 5277 5277 5278 5281 5285 5285 5286 5294 5301 5304 5307 5308 5311 5313 5316
5460 5454 5447 5441 5435 5428 5419 5412 5407 5403 5397 5389 5380 5370 5360 5349 5338 5326 5317 5308 5300 5292 5285 5280 5278 5277 5277 5276 5274 5273 5273 5274 5281 5285 5282 5286 5293 5297 5301 5305 5310 5313 5315
5450 5444 5437 5431 5424 5418 5409 5402 5395 5391 5387 5379 5369 5358 5346 5334 5321 5308 5300 5294 5291 5287 5282 5279 5278 5278 5276 5274 5271 5268 5266 5265 5269 5276 5281 5279 5280 5281 5297 5306 5306 5309 5314